Ketchikan, AK

10:40 PM AKDT on September 20, 2018 (GMT -0800)
Ketchikan International

Weather History for PAKT - August, 2018

Change the Weather History Date:

Sunday, August 5, 2018

  Actual Average Record
Temperature  
Mean Temperature 63 °F -  
Max Temperature 75 °F 67 °F 86 °F (1977)
Min Temperature 51 °F 52 °F 42 °F (2002)
Degree Days  
Heating Degree Days 2    
Growing Degree Days 13 (Base 50)    
Moisture  
Dew Point 54 °F    
Average Humidity 75    
Maximum Humidity 97    
Minimum Humidity 50    
Precipitation  
Precipitation 0.00 in - - ()
Sea Level Pressure  
Sea Level Pressure 30.06 in    
Wind  
Wind Speed 4 mph (NW)    
Max Wind Speed 13 mph    
Max Gust Speed -    
Visibility 10 miles    
Events      
Averages and records for this station are not official NWS values.
T = Trace of Precipitation, MM = Missing Value Source: NWS Daily Summary

Daily Weather History Graph

Daily Weather History Graph

Search for Another Location

Airport or City:

Astronomy

Aug. 05, 2018 Rise Set
Actual Time 5:01 AM AKDT 8:42 PM AKDT
Civil Twilight 4:16 AM AKDT 9:27 PM AKDT
Nautical Twilight 3:11 AM AKDT 10:31 PM AKDT
Astronomical Twilight 1:25 AM AKDT 12:20 AM AKDT
Moon No Moon Rise 3:09 PM AKDT (8/5)
Length of Visible Light 17h 11m
Length of Day
15h 40m
Last Quarter, 38% of the Moon is Illuminated
Aug 5
Last Quarter
Aug 11
New
Aug 17
First Quarter
Aug 26
Full
Sep 2
Last Quarter

Hourly Weather History & Observations

Time (AKDT) Temp. Dew Point Humidity Pressure Visibility Wind Dir Wind Speed Gust Speed Precip Events Conditions
12:53 AM 52.0 °F 50.0 °F 93% 30.07 in 10.0 mi Calm Calm - N/A   Clear
1:53 AM 52.0 °F 51.1 °F 97% 30.06 in 10.0 mi Calm Calm - N/A   Clear
2:53 AM 53.1 °F 52.0 °F 96% 30.06 in 10.0 mi Calm Calm - N/A   Clear
3:53 AM 51.1 °F 50.0 °F 96% 30.06 in 10.0 mi Calm Calm - N/A   Clear
4:53 AM 53.1 °F 52.0 °F 96% 30.06 in 10.0 mi Calm Calm - N/A   Clear
5:53 AM 55.0 °F 53.1 °F 93% 30.07 in 10.0 mi NW 5.8 mph - N/A   Clear
6:02 AM 55.9 °F 54.0 °F 93% 30.06 in 10.0 mi NW 5.8 mph - N/A   Clear
6:41 AM 57.9 °F 55.9 °F 93% 30.07 in 10.0 mi NNW 4.6 mph - N/A   Scattered Clouds
6:53 AM 59.0 °F 55.9 °F 90% 30.07 in 10.0 mi NNW 5.8 mph - N/A   Scattered Clouds
7:53 AM 61.0 °F 57.0 °F 87% 30.07 in 10.0 mi NNW 9.2 mph - N/A   Partly Cloudy
8:53 AM 62.6 °F 57.2 °F 82% 30.07 in 10.0 mi NW 12.7 mph - N/A   Clear
9:53 AM 64.0 °F 57.0 °F 78% 30.08 in 10.0 mi NW 12.7 mph - N/A   Clear
10:53 AM 66.2 °F 57.2 °F 73% 30.08 in 10.0 mi NW 8.1 mph - N/A   Clear
11:53 AM 70.0 °F 57.0 °F 63% 30.07 in 10.0 mi WNW 8.1 mph - N/A   Clear
12:53 PM 71.6 °F 57.2 °F 60% 30.07 in 10.0 mi NW 10.4 mph - N/A   Clear
1:53 PM 71.6 °F 55.4 °F 57% 30.07 in 10.0 mi WNW 11.5 mph - N/A   Clear
2:53 PM 71.6 °F 57.2 °F 60% 30.06 in 10.0 mi NW 10.4 mph - N/A   Clear
3:53 PM 75.2 °F 55.4 °F 50% 30.06 in 10.0 mi NW 8.1 mph - N/A   Clear
4:53 PM 73.4 °F 55.4 °F 53% 30.06 in 10.0 mi NW 9.2 mph - N/A   Clear
5:53 PM 73.0 °F 54.0 °F 51% 30.05 in 10.0 mi WNW 8.1 mph - N/A   Clear
6:53 PM 71.6 °F 53.6 °F 53% 30.05 in 10.0 mi WNW 6.9 mph - N/A   Clear
7:53 PM 70.0 °F 52.0 °F 53% 30.05 in 10.0 mi WNW 5.8 mph - N/A   Clear
8:53 PM 63.0 °F 55.0 °F 75% 30.06 in 10.0 mi Calm Calm - N/A   Clear
9:53 PM 64.0 °F 52.0 °F 65% 30.06 in 10.0 mi West 4.6 mph - N/A   Clear
10:53 PM 63.0 °F 52.0 °F 67% 30.07 in 10.0 mi WNW 6.9 mph - N/A   Clear
11:53 PM 63.0 °F 52.0 °F 67% 30.07 in 10.0 mi WNW 3.5 mph - N/A   Clear